Hourly Weather Bolshoe Aksenovo

Today, 20 June, Sunday

Time Temperature Precipitation Wind Pressure Humidity
00:00 +18°C° 0 mm 2 mps 756 mmHg 80%
01:00 +17°C° 0 mm 2 mps 756 mmHg 83%
02:00 +17°C° 0 mm 2 mps 756 mmHg 86%
03:00 +18°C° 0 mm 2 mps 756 mmHg 84%
04:00 +19°C° 0 mm 1 mps 756 mmHg 82%
05:00 +20°C° 0 mm 1 mps 756 mmHg 80%
06:00 +22°C° 0 mm 1 mps 756 mmHg 73%
07:00 +24°C° 0 mm 2 mps 756 mmHg 65%
08:00 +26°C° 0 mm 2 mps 755 mmHg 57%
09:00 +28°C° 0 mm 2 mps 755 mmHg 52%
10:00 +29°C° 0 mm 2 mps 755 mmHg 47%
11:00 +30°C° 0 mm 2 mps 755 mmHg 42%
12:00 +31°C° 0 mm 2 mps 755 mmHg 40%
13:00 +32°C° 0 mm 2 mps 755 mmHg 38%
14:00 +32°C° 0 mm 2 mps 754 mmHg 36%
15:00 +32°C° 0 mm 2 mps 754 mmHg 40%
16:00 +31°C° 0 mm 2 mps 754 mmHg 43%
17:00 +31°C° 0 mm 2 mps 754 mmHg 47%
18:00 +29°C° 0 mm 2 mps 754 mmHg 55%
19:00 +26°C° 0 mm 2 mps 754 mmHg 64%
20:00 +24°C° 0 mm 1 mps 753 mmHg 73%
21:00 +23°C° 0 mm 1 mps 754 mmHg 75%
22:00 +22°C° 0 mm 1 mps 754 mmHg 77%
23:00 +20°C° 0 mm 2 mps 754 mmHg 79%

Tomorrow, 21 June, Monday

Time Temperature Precipitation Wind Pressure Humidity
00:00 +20°C° 0 mm 2 mps 754 mmHg 82%
01:00 +20°C° 0 mm 2 mps 754 mmHg 84%
02:00 +19°C° 0 mm 2 mps 754 mmHg 87%
03:00 +20°C° 0 mm 2 mps 754 mmHg 85%
04:00 +22°C° 0 mm 1 mps 754 mmHg 83%
05:00 +22°C° 0 mm 1 mps 754 mmHg 82%
06:00 +24°C° 0 mm 2 mps 754 mmHg 75%
07:00 +26°C° 0 mm 2 mps 755 mmHg 68%
08:00 +28°C° 0 mm 2 mps 755 mmHg 61%
09:00 +29°C° 0 mm 2 mps 755 mmHg 56%
10:00 +30°C° 0 mm 2 mps 754 mmHg 51%
11:00 +31°C° 0 mm 2 mps 754 mmHg 46%
12:00 +31°C° 0 mm 2 mps 754 mmHg 44%
13:00 +32°C° 0 mm 2 mps 754 mmHg 41%
14:00 +32°C° 0 mm 2 mps 754 mmHg 38%
15:00 +31°C° 0 mm 2 mps 754 mmHg 42%
16:00 +31°C° 0 mm 2 mps 754 mmHg 45%
17:00 +30°C° 0 mm 2 mps 754 mmHg 49%
18:00 +28°C° 0 mm 2 mps 754 mmHg 55%
19:00 +26°C° 0 mm 1 mps 753 mmHg 61%
20:00 +24°C° 0 mm 1 mps 753 mmHg 67%
21:00 +23°C° 0 mm 1 mps 754 mmHg 71%
22:00 +22°C° 0 mm 1 mps 754 mmHg 75%
23:00 +20°C° 0 mm 2 mps 754 mmHg 79%

Day after tomorrow, 22 June, Tuesday

Time Temperature Precipitation Wind Pressure Humidity
00:00 +21°C° 0 mm 1 mps 754 mmHg 82%
01:00 +20°C° 0 mm 1 mps 754 mmHg 85%
02:00 +20°C° 0 mm 1 mps 754 mmHg 88%
03:00 +21°C° 0 mm 1 mps 754 mmHg 86%
04:00 +21°C° 0 mm 1 mps 755 mmHg 83%
05:00 +22°C° 0 mm 1 mps 755 mmHg 81%
06:00 +24°C° 0 mm 1 mps 755 mmHg 74%
07:00 +26°C° 0 mm 1 mps 755 mmHg 67%
08:00 +28°C° 0 mm 2 mps 755 mmHg 60%
09:00 +29°C° 0 mm 2 mps 755 mmHg 55%
10:00 +30°C° 0 mm 2 mps 754 mmHg 49%
11:00 +32°C° 0 mm 2 mps 754 mmHg 44%
12:00 +32°C° 0 mm 2 mps 754 mmHg 42%
13:00 +34°C° 0 mm 2 mps 754 mmHg 39%
14:00 +35°C° 0 mm 2 mps 754 mmHg 37%
15:00 +35°C° 0 mm 2 mps 754 mmHg 40%
16:00 +34°C° 0 mm 2 mps 754 mmHg 42%
17:00 +34°C° 0 mm 2 mps 753 mmHg 45%
18:00 +31°C° 0 mm 2 mps 753 mmHg 53%
19:00 +28°C° 0 mm 2 mps 753 mmHg 61%
20:00 +26°C° 0 mm 1 mps 753 mmHg 69%
21:00 +25°C° 0 mm 1 mps 753 mmHg 71%
22:00 +24°C° 0 mm 2 mps 754 mmHg 73%
23:00 +23°C° 0 mm 2 mps 754 mmHg 75%

23 June, Wednesday

Time Temperature Precipitation Wind Pressure Humidity
00:00 +21°C° 0 mm 2 mps 754 mmHg 79%
01:00 +21°C° 0 mm 2 mps 754 mmHg 82%
02:00 +20°C° 0 mm 2 mps 755 mmHg 86%
03:00 +21°C° 0 mm 2 mps 755 mmHg 85%
04:00 +23°C° 0 mm 2 mps 755 mmHg 84%
05:00 +24°C° 0 mm 2 mps 755 mmHg 84%
06:00 +26°C° 0 mm 2 mps 755 mmHg 76%
07:00 +28°C° 0 mm 2 mps 755 mmHg 68%
08:00 +30°C° 0 mm 2 mps 755 mmHg 61%
09:00 +31°C° 0 mm 2 mps 755 mmHg 54%
10:00 +32°C° 0 mm 2 mps 754 mmHg 47%
11:00 +35°C° 0 mm 2 mps 754 mmHg 41%
12:00 +35°C° 0 mm 2 mps 754 mmHg 38%
13:00 +36°C° 0 mm 2 mps 754 mmHg 35%
14:00 +37°C° 0 mm 2 mps 754 mmHg 32%
15:00 +36°C° 0 mm 2 mps 754 mmHg 35%
16:00 +36°C° 0 mm 2 mps 754 mmHg 38%
17:00 +35°C° 0 mm 2 mps 754 mmHg 42%
18:00 +32°C° 0 mm 2 mps 754 mmHg 50%
19:00 +29°C° 0 mm 2 mps 754 mmHg 59%
20:00 +27°C° 0 mm 1 mps 754 mmHg 67%
21:00 +26°C° 0 mm 2 mps 754 mmHg 69%
22:00 +25°C° 0 mm 2 mps 754 mmHg 70%
23:00 +24°C° 0 mm 2 mps 754 mmHg 72%

24 June, Thursday

Time Temperature Precipitation Wind Pressure Humidity
00:00 +24°C° 0 mm 2 mps 754 mmHg 75%
01:00 +23°C° 0 mm 2 mps 754 mmHg 77%
02:00 +21°C° 0 mm 2 mps 754 mmHg 80%
03:00 +23°C° 0 mm 2 mps 754 mmHg 79%
04:00 +24°C° 0 mm 1 mps 754 mmHg 78%
05:00 +24°C° 0 mm 1 mps 754 mmHg 77%
06:00 +26°C° 0 mm 1 mps 754 mmHg 70%
07:00 +28°C° 0 mm 2 mps 754 mmHg 62%
08:00 +30°C° 0 mm 2 mps 754 mmHg 54%
09:00 +31°C° 0 mm 2 mps 754 mmHg 49%
10:00 +34°C° 0 mm 2 mps 754 mmHg 44%
11:00 +35°C° 0 mm 2 mps 754 mmHg 39%
12:00 +36°C° 0 mm 2 mps 754 mmHg 36%
13:00 +36°C° 0 mm 2 mps 753 mmHg 34%
14:00 +37°C° 0 mm 2 mps 753 mmHg 31%
15:00 +36°C° 0 mm 2 mps 753 mmHg 34%
16:00 +36°C° 0 mm 2 mps 752 mmHg 37%
17:00 +35°C° 0 mm 2 mps 752 mmHg 40%
18:00 +32°C° 0 mm 2 mps 752 mmHg 48%
19:00 +29°C° 0 mm 2 mps 752 mmHg 56%
20:00 +27°C° 0 mm 2 mps 752 mmHg 64%
21:00 +26°C° 0 mm 2 mps 752 mmHg 65%
22:00 +25°C° 0 mm 1 mps 752 mmHg 67%
23:00 +24°C° 0 mm 1 mps 752 mmHg 68%

25 June, Friday

Time Temperature Precipitation Wind Pressure Humidity
00:00 +24°C° 0 mm 1 mps 752 mmHg 70%
01:00 +23°C° 0 mm 2 mps 752 mmHg 73%
02:00 +21°C° 0 mm 2 mps 752 mmHg 75%
03:00 +23°C° 0 mm 1 mps 752 mmHg 76%
04:00 +24°C° 0 mm 1 mps 752 mmHg 76%
05:00 +24°C° 0 mm 1 mps 752 mmHg 76%
06:00 +26°C° 0 mm 1 mps 751 mmHg 68%
07:00 +28°C° 0 mm 1 mps 751 mmHg 61%
08:00 +30°C° 0 mm 1 mps 751 mmHg 54%
09:00 +32°C° 0 mm 1 mps 751 mmHg 49%
10:00 +33°C° 0 mm 1 mps 751 mmHg 44%
11:00 +35°C° 0 mm 1 mps 751 mmHg 40%
12:00 +35°C° 0 mm 1 mps 750 mmHg 39%
13:00 +35°C° 0 mm 1 mps 750 mmHg 39%
14:00 +35°C° 0 mm 1 mps 750 mmHg 39%
15:00 +31°C° 4.5 mm 2 mps 750 mmHg 57%
16:00 +26°C° 4.5 mm 3 mps 750 mmHg 74%
17:00 +20°C° 4.5 mm 4 mps 750 mmHg 91%
18:00 +20°C° 0.2 mm 3 mps 750 mmHg 91%
19:00 +20°C° 0.2 mm 3 mps 750 mmHg 91%
20:00 +20°C° 0.2 mm 2 mps 749 mmHg 91%
21:00 +20°C° 0.1 mm 2 mps 749 mmHg 93%
22:00 +20°C° 0.1 mm 1 mps 749 mmHg 94%
23:00 +20°C° 0.1 mm 1 mps 749 mmHg 95%
Show more